| time (UTC) | temp C | wind direction | speed KPH | gust KPH | rain 1hr cm | rain 24hr cm | rain mn cm | humidity % | barometer mb |
| 20260906073322 | 22 | 105 | 1.6 | 1.6 | 0.00 | 0.00 | 0.00 | 92 | 1012.6 |
| 20260906072818 | 22 | 83 | 0.0 | 1.6 | 0.00 | 0.00 | 0.00 | 92 | 1012.8 |
| 20260906072314 | 22 | 52 | 1.6 | 1.6 | 0.00 | 0.00 | 0.00 | 92 | 1013.0 |
| 20260906071810 | 22 | 83 | 0.0 | 1.6 | 0.00 | 0.00 | 0.00 | 92 | 1012.8 |
| 20260906071304 | 22 | 125 | 3.2 | 3.2 | 0.00 | 0.00 | 0.00 | 92 | 1012.9 |
| 20260906070801 | 22 | 132 | 1.6 | 1.6 | 0.00 | 0.00 | 0.00 | 93 | 1012.9 |
| 20260906070256 | 22 | 123 | 1.6 | 3.2 | 0.00 | 0.00 | 0.00 | 93 | 1012.9 |
| 20260906065755 | 22 | 140 | 1.6 | 1.6 | 0.00 | 0.00 | 0.00 | 94 | 1012.8 |
| 20260906065251 | 22 | 155 | 0.0 | 1.6 | 0.00 | 0.00 | 0.00 | 94 | 1012.9 |
| 20260906064747 | 22 | 107 | 1.6 | 1.6 | 0.00 | 0.00 | 0.00 | 94 | 1012.6 |
| 20260906064243 | 22 | 135 | 0.0 | 0.0 | 0.00 | 0.00 | 0.00 | 94 | 1012.6 |
| 20260906063737 | 22 | 147 | 0.0 | 0.0 | 0.00 | 0.00 | 0.00 | 94 | 1012.8 |
| 20260906063233 | 22 | 139 | 0.0 | 0.0 | 0.00 | 0.00 | 0.00 | 94 | 1013.0 |
| 20260906062728 | 22 | 142 | 0.0 | 1.6 | 0.00 | 0.00 | 0.00 | 94 | 1012.5 |
| 20260906062227 | 23 | 144 | 0.0 | 0.0 | 0.00 | 0.00 | 0.00 | 94 | 1012.8 |
| 20260906061723 | 23 | 52 | 1.6 | 1.6 | 0.00 | 0.00 | 0.00 | 94 | 1013.0 |
| 20260906061219 | 23 | 121 | 1.6 | 1.6 | 0.00 | 0.00 | 0.00 | 94 | 1012.8 |
| 20260906060714 | 23 | 140 | 0.0 | 0.0 | 0.00 | 0.00 | 0.00 | 94 | 1012.8 |
| 20260906060212 | 23 | 146 | 0.0 | 0.0 | 0.00 | 0.00 | 0.00 | 93 | 1012.6 |
| 20260906055707 | 23 | 128 | 1.6 | 1.6 | 0.00 | 0.00 | 0.00 | 93 | 1012.6 |
| 20260906055202 | 23 | 134 | 1.6 | 1.6 | 0.00 | 0.00 | 0.00 | 93 | 1012.8 |
| 20260906054657 | 23 | 101 | 1.6 | 1.6 | 0.00 | 0.00 | 0.00 | 93 | 1012.3 |
| 20260906054152 | 23 | 128 | 0.0 | 1.6 | 0.00 | 0.00 | 0.00 | 93 | 1012.3 |
| 20260906053649 | 23 | 134 | 1.6 | 1.6 | 0.00 | 0.00 | 0.00 | 93 | 1012.4 |
| 20260906053144 | 23 | 136 | 0.0 | 1.6 | 0.00 | 0.00 | 0.00 | 93 | 1012.5 |
| 20260906052639 | 23 | 146 | 0.0 | 0.0 | 0.00 | 0.00 | 0.00 | 92 | 1012.4 |
| 20260906052136 | 23 | 106 | 0.0 | 0.0 | 0.00 | 0.00 | 0.00 | 93 | 1012.4 |
| 20260906051632 | 23 | 121 | 1.6 | 1.6 | 0.00 | 0.00 | 0.00 | 93 | 1012.4 |
| 20260906051131 | 23 | 126 | 0.0 | 1.6 | 0.00 | 0.00 | 0.00 | 93 | 1012.4 |
| 20260906050627 | 23 | 122 | 0.0 | 0.0 | 0.00 | 0.00 | 0.00 | 93 | 1012.4 |
| 20260906050122 | 23 | 133 | 0.0 | 0.0 | 0.00 | 0.00 | 0.00 | 93 | 1012.4 |
| 20260906045620 | 23 | 96 | 1.6 | 1.6 | 0.00 | 0.00 | 0.00 | 93 | 1012.6 |
| 20260906045116 | 23 | 131 | 0.0 | 1.6 | 0.00 | 0.00 | 0.00 | 93 | 1012.3 |
| 20260906044612 | 23 | 137 | 0.0 | 1.6 | 0.00 | 0.00 | 0.00 | 93 | 1012.1 |
| 20260906044107 | 23 | 149 | 0.0 | 1.6 | 0.00 | 0.00 | 0.00 | 92 | 1012.3 |
| 20260906043603 | 23 | 144 | 0.0 | 1.6 | 0.00 | 0.00 | 0.00 | 92 | 1012.0 |
| 20260906043058 | 23 | 105 | 1.6 | 1.6 | 0.00 | 0.00 | 0.00 | 92 | 1012.2 |
| 20260906042557 | 24 | 126 | 1.6 | 1.6 | 0.00 | 0.00 | 0.00 | 92 | 1012.2 |
| 20260906042052 | 24 | 111 | 1.6 | 1.6 | 0.00 | 0.00 | 0.00 | 91 | 1012.2 |
| 20260906041548 | 24 | 90 | 3.2 | 3.2 | 0.00 | 0.00 | 0.00 | 91 | 1012.1 |
| 20260906041043 | 24 | 121 | 1.6 | 1.6 | 0.00 | 0.00 | 0.00 | 91 | 1012.0 |
| 20260906040538 | 24 | 130 | 0.0 | 1.6 | 0.00 | 0.00 | 0.00 | 90 | 1012.1 |
| 20260906040034 | 24 | 114 | 3.2 | 3.2 | 0.00 | 0.03 | 0.03 | 90 | 1012.2 |
| 20260906035529 | 25 | 149 | 0.0 | 1.6 | 0.00 | 0.03 | 0.03 | 90 | 1012.0 |
| 20260906035025 | 25 | 89 | 1.6 | 3.2 | 0.00 | 0.03 | 0.03 | 90 | 1012.0 |
| 20260906034524 | 25 | 119 | 3.2 | 3.2 | 0.00 | 0.03 | 0.03 | 90 | 1012.0 |
| 20260906034019 | 25 | 154 | 1.6 | 1.6 | 0.00 | 0.03 | 0.03 | 90 | 1011.9 |
| 20260906033514 | 25 | 130 | 0.0 | 1.6 | 0.00 | 0.03 | 0.03 | 90 | 1012.2 |
| 20260906033010 | 25 | 115 | 0.0 | 1.6 | 0.00 | 0.03 | 0.03 | 89 | 1011.9 |
| 20260906032507 | 25 | 117 | 3.2 | 3.2 | 0.00 | 0.03 | 0.03 | 89 | 1011.7 |
| 20260906032007 | 25 | 101 | 4.8 | 4.8 | 0.00 | 0.03 | 0.03 | 89 | 1011.9 |
| 20260906031502 | 25 | 88 | 1.6 | 3.2 | 0.00 | 0.03 | 0.03 | 89 | 1011.9 |
| 20260906030957 | 25 | 119 | 1.6 | 3.2 | 0.00 | 0.03 | 0.03 | 89 | 1011.9 |
| 20260906030452 | 25 | 132 | 1.6 | 1.6 | 0.00 | 0.03 | 0.03 | 89 | 1012.0 |
| 20260906025951 | 25 | 103 | 1.6 | 1.6 | 0.00 | 0.03 | 0.03 | 88 | 1011.7 |
| 20260906025446 | 25 | 119 | 1.6 | 1.6 | 0.00 | 0.03 | 0.03 | 88 | 1011.9 |
| 20260906024944 | 26 | 121 | 3.2 | 3.2 | 0.00 | 0.03 | 0.03 | 88 | 1011.8 |
| 20260906024445 | 25 | 91 | 3.2 | 3.2 | 0.00 | 0.03 | 0.03 | 88 | 1011.8 |
| 20260906023945 | 25 | 131 | 1.6 | 1.6 | 0.00 | 0.03 | 0.03 | 89 | 1011.8 |
| 20260906023441 | 25 | 149 | 0.0 | 0.0 | 0.00 | 0.03 | 0.03 | 89 | 1011.6 |
| 20260906022936 | 25 | 169 | 1.6 | 1.6 | 0.00 | 0.03 | 0.03 | 88 | 1011.5 |
| 20260906022431 | 26 | 106 | 0.0 | 0.0 | 0.00 | 0.03 | 0.03 | 88 | 1011.4 |
| 20260906021926 | 26 | 121 | 0.0 | 0.0 | 0.00 | 0.03 | 0.03 | 87 | 1011.4 |
| 20260906021426 | 26 | 135 | 0.0 | 0.0 | 0.00 | 0.03 | 0.03 | 88 | 1011.4 |
| 20260906020920 | 26 | 151 | 0.0 | 0.0 | 0.00 | 0.03 | 0.03 | 88 | 1011.1 |
| 20260906020415 | 26 | 164 | 0.0 | 0.0 | 0.00 | 0.03 | 0.03 | 88 | 1011.2 |
| 20260906015909 | 26 | 135 | 0.0 | 0.0 | 0.00 | 0.03 | 0.03 | 88 | 1011.1 |
| 20260906015409 | 26 | 138 | 1.6 | 1.6 | 0.00 | 0.03 | 0.03 | 88 | 1011.2 |
| 20260906014908 | 26 | 151 | 0.0 | 0.0 | 0.00 | 0.03 | 0.03 | 88 | 1010.9 |
| 20260906014403 | 26 | 147 | 0.0 | 0.0 | 0.00 | 0.03 | 0.03 | 88 | 1011.1 |
| 20260906013859 | 26 | 147 | 0.0 | 0.0 | 0.00 | 0.03 | 0.03 | 87 | 1010.9 |
| 20260906013354 | 26 | 128 | 0.0 | 0.0 | 0.00 | 0.03 | 0.03 | 87 | 1011.1 |
| 20260906012850 | 26 | 144 | 0.0 | 0.0 | 0.00 | 0.03 | 0.03 | 88 | 1010.8 |
| 20260906012344 | 26 | 135 | 0.0 | 0.0 | 0.00 | 0.03 | 0.03 | 87 | 1010.9 |
| 20260906011838 | 26 | 165 | 0.0 | 0.0 | 0.00 | 0.03 | 0.03 | 87 | 1010.5 |
| 20260906011333 | 26 | 136 | 0.0 | 0.0 | 0.00 | 0.03 | 0.03 | 87 | 1010.6 |
| 20260906010829 | 26 | 159 | 0.0 | 0.0 | 0.00 | 0.03 | 0.03 | 87 | 1010.7 |
| 20260906010325 | 26 | 150 | 0.0 | 0.0 | 0.00 | 0.03 | 0.03 | 87 | 1010.6 |
| 20260906005820 | 26 | 150 | 0.0 | 0.0 | 0.00 | 0.03 | 0.03 | 86 | 1010.6 |
| 20260906005319 | 26 | 123 | 0.0 | 0.0 | 0.00 | 0.03 | 0.03 | 86 | 1010.5 |
| 20260906004818 | 26 | 134 | 0.0 | 0.0 | 0.00 | 0.03 | 0.03 | 86 | 1010.3 |
| 20260906004318 | 26 | 132 | 0.0 | 0.0 | 0.00 | 0.03 | 0.03 | 86 | 1010.0 |
| 20260906003813 | 26 | 149 | 0.0 | 0.0 | 0.00 | 0.03 | 0.03 | 86 | 1010.1 |
| 20260906003308 | 26 | 158 | 0.0 | 0.0 | 0.00 | 0.03 | 0.03 | 86 | 1010.3 |
| 20260906002804 | 26 | 129 | 0.0 | 0.0 | 0.00 | 0.03 | 0.03 | 86 | 1010.1 |
| 20260906002306 | 26 | 152 | 0.0 | 0.0 | 0.00 | 0.03 | 0.03 | 86 | 1010.1 |
| 20260906001759 | 26 | 151 | 0.0 | 1.6 | 0.00 | 0.03 | 0.03 | 86 | 1010.2 |
| 20260906001254 | 26 | 160 | 0.0 | 0.0 | 0.00 | 0.03 | 0.03 | 86 | 1010.0 |
| 20260906000749 | 26 | 162 | 0.0 | 0.0 | 0.00 | 0.03 | 0.03 | 85 | 1010.0 |
| 20260906000244 | 26 | 164 | 0.0 | 1.6 | 0.00 | 0.03 | 0.03 | 84 | 1010.2 |
| 20260905235739 | 26 | 148 | 0.0 | 0.0 | 0.00 | 0.03 | 0.03 | 83 | 1010.0 |
| 20260905235238 | 26 | 145 | 0.0 | 0.0 | 0.00 | 0.03 | 0.03 | 84 | 1010.3 |
| 20260905234734 | 26 | 153 | 0.0 | 0.0 | 0.00 | 0.03 | 0.03 | 84 | 1010.4 |
| 20260905234229 | 26 | 167 | 0.0 | 0.0 | 0.00 | 0.03 | 0.03 | 83 | 1010.2 |
| 20260905233725 | 26 | 174 | 0.0 | 0.0 | 0.00 | 0.03 | 0.03 | 84 | 1010.1 |
| 20260905233224 | 26 | 169 | 0.0 | 0.0 | 0.00 | 0.03 | 0.03 | 83 | 1010.2 |
| 20260905232719 | 26 | 169 | 0.0 | 0.0 | 0.00 | 0.03 | 0.03 | 83 | 1010.2 |
| 20260905232214 | 26 | 171 | 0.0 | 0.0 | 0.00 | 0.03 | 0.03 | 81 | 1010.4 |
| 20260905231710 | 26 | 172 | 0.0 | 0.0 | 0.00 | 0.03 | 0.03 | 81 | 1010.1 |
| 20260905231205 | 26 | 150 | 0.0 | 0.0 | 0.00 | 0.03 | 0.03 | 83 | 1010.1 |
| 20260905230702 | 26 | 158 | 0.0 | 1.6 | 0.00 | 0.03 | 0.03 | 82 | 1010.1 |
| 20260905230159 | 26 | 166 | 0.0 | 0.0 | 0.00 | 0.03 | 0.03 | 82 | 1009.9 |
| 20260905225659 | 26 | 175 | 0.0 | 0.0 | 0.00 | 0.03 | 0.03 | 84 | 1010.0 |
| 20260905225154 | 26 | 176 | 0.0 | 0.0 | 0.00 | 0.03 | 0.03 | 85 | 1009.8 |
| 20260905224653 | 26 | 168 | 0.0 | 0.0 | 0.00 | 0.03 | 0.03 | 88 | 1009.8 |
| 20260905224148 | 26 | 176 | 0.0 | 0.0 | 0.00 | 0.03 | 0.03 | 88 | 1009.9 |
| 20260905223645 | 26 | 174 | 0.0 | 0.0 | 0.00 | 0.03 | 0.03 | 88 | 1009.9 |
| 20260905223141 | 26 | 181 | 0.0 | 0.0 | 0.00 | 0.03 | 0.03 | 90 | 1009.9 |
| 20260905222637 | 26 | 164 | 0.0 | 0.0 | 0.00 | 0.03 | 0.03 | 91 | 1009.8 |
| 20260905222131 | 26 | 178 | 0.0 | 0.0 | 0.00 | 0.03 | 0.03 | 92 | 1010.0 |
| 20260905221627 | 26 | 238 | 1.6 | 1.6 | 0.00 | 0.03 | 0.03 | 92 | 1010.1 |
| 20260905221124 | 26 | 126 | 0.0 | 0.0 | 0.00 | 0.03 | 0.03 | 93 | 1010.1 |
| 20260905220619 | 26 | 184 | 0.0 | 0.0 | 0.00 | 0.03 | 0.03 | 93 | 1010.1 |
| 20260905220115 | 26 | 208 | 0.0 | 1.6 | 0.00 | 0.03 | 0.03 | 93 | 1010.0 |
| 20260905215614 | 26 | 171 | 0.0 | 0.0 | 0.00 | 0.03 | 0.03 | 94 | 1009.6 |
| 20260905215104 | 27 | 167 | 0.0 | 0.0 | 0.00 | 0.03 | 0.03 | 93 | 1009.7 |
| 20260905214600 | 27 | 191 | 0.0 | 0.0 | 0.00 | 0.03 | 0.03 | 90 | 1009.8 |
| 20260905214055 | 27 | 164 | 0.0 | 0.0 | 0.13 | 0.03 | 0.03 | 88 | 1009.7 |
| 20260905213550 | 28 | 188 | 0.0 | 0.0 | 0.13 | 0.03 | 0.03 | 85 | 1010.2 |
| 20260905213045 | 29 | 186 | 1.6 | 1.6 | 0.00 | 0.00 | 0.00 | 80 | 1010.3 |
| 20260905212545 | 29 | 185 | 1.6 | 1.6 | 0.00 | 0.00 | 0.00 | 78 | 1010.1 |
| 20260905212045 | 30 | 176 | 0.0 | 0.0 | 0.00 | 0.00 | 0.00 | 77 | 1009.8 |
| 20260905211540 | 30 | 169 | 1.6 | 1.6 | 0.00 | 0.00 | 0.00 | 75 | 1009.6 |
| 20260905211036 | 30 | 172 | 0.0 | 0.0 | 0.00 | 0.00 | 0.00 | 75 | 1010.1 |
| 20260905210531 | 30 | 194 | 1.6 | 1.6 | 0.00 | 0.00 | 0.00 | 75 | 1009.8 |
| 20260905210026 | 31 | 191 | 0.0 | 1.6 | 0.00 | 0.00 | 0.00 | 70 | 1010.0 |
| 20260905205525 | 31 | 121 | 0.0 | 1.6 | 0.00 | 0.00 | 0.00 | 67 | 1010.0 |
| 20260905205024 | 32 | 172 | 0.0 | 0.0 | 0.00 | 0.00 | 0.00 | 68 | 1009.6 |
| 20260905204519 | 33 | 260 | 3.2 | 3.2 | 0.00 | 0.00 | 0.00 | 67 | 1009.9 |
| 20260905204015 | 33 | 198 | 0.0 | 0.0 | 0.00 | 0.00 | 0.00 | 62 | 1009.9 |
| 20260905203509 | 33 | 183 | 0.0 | 0.0 | 0.00 | 0.00 | 0.00 | 62 | 1010.0 |
| 20260905203005 | 34 | 204 | 0.0 | 0.0 | 0.00 | 0.00 | 0.00 | 62 | 1010.1 |
| 20260905202500 | 33 | 186 | 0.0 | 0.0 | 0.00 | 0.00 | 0.00 | 63 | 1010.1 |
| 20260905201956 | 33 | 166 | 0.0 | 0.0 | 0.00 | 0.00 | 0.00 | 68 | 1010.2 |
| 20260905201450 | 33 | 192 | 0.0 | 0.0 | 0.00 | 0.00 | 0.00 | 61 | 1010.3 |
| 20260905200950 | 33 | 224 | 0.0 | 1.6 | 0.00 | 0.00 | 0.00 | 66 | 1010.3 |
| 20260905200446 | 34 | 232 | 3.2 | 3.2 | 0.00 | 0.00 | 0.00 | 61 | 1010.3 |
| 20260905195944 | 33 | 166 | 0.0 | 0.0 | 0.00 | 0.00 | 0.00 | 68 | 1010.4 |
| 20260905195439 | 32 | 199 | 1.6 | 3.2 | 0.00 | 0.00 | 0.00 | 67 | 1010.1 |
| 20260905194935 | 32 | 168 | 0.0 | 0.0 | 0.00 | 0.00 | 0.00 | 68 | 1010.2 |
| 20260905194434 | 32 | 174 | 0.0 | 0.0 | 0.00 | 0.00 | 0.00 | 66 | 1010.5 |
| 20260905193929 | 32 | 100 | 0.0 | 0.0 | 0.00 | 0.00 | 0.00 | 65 | 1010.5 |
| 20260905193424 | 32 | 232 | 3.2 | 3.2 | 0.00 | 0.00 | 0.00 | 66 | 1010.5 |
| 20260905192919 | 33 | 233 | 3.2 | 3.2 | 0.00 | 0.00 | 0.00 | 62 | 1010.6 |
| 20260905192414 | 34 | 185 | 0.0 | 1.6 | 0.00 | 0.00 | 0.00 | 62 | 1010.5 |
| 20260905191914 | 33 | 186 | 0.0 | 0.0 | 0.00 | 0.00 | 0.00 | 64 | 1010.5 |
| 20260905191414 | 32 | 217 | 3.2 | 3.2 | 0.00 | 0.00 | 0.00 | 64 | 1010.7 |
| 20260905190908 | 32 | 178 | 0.0 | 0.0 | 0.00 | 0.00 | 0.00 | 65 | 1010.9 |
| 20260905190400 | 32 | 178 | 0.0 | 0.0 | 0.00 | 0.00 | 0.00 | 69 | 1011.1 |
| 20260905185859 | 31 | 135 | 0.0 | 0.0 | 0.00 | 0.00 | 0.00 | 68 | 1010.7 |
| 20260905185355 | 31 | 188 | 0.0 | 1.6 | 0.00 | 0.00 | 0.00 | 65 | 1011.0 |
| 20260905184853 | 31 | 233 | 3.2 | 3.2 | 0.00 | 0.00 | 0.00 | 65 | 1011.1 |
| 20260905184353 | 31 | 181 | 0.0 | 0.0 | 0.00 | 0.00 | 0.00 | 66 | 1011.4 |
| 20260905183851 | 31 | 225 | 3.2 | 3.2 | 0.00 | 0.00 | 0.00 | 67 | 1011.2 |
| 20260905183347 | 31 | 205 | 1.6 | 1.6 | 0.00 | 0.00 | 0.00 | 66 | 1011.3 |
| 20260905182842 | 31 | 234 | 4.8 | 8.0 | 0.00 | 0.00 | 0.00 | 65 | 1011.7 |
| 20260905182341 | 31 | 257 | 4.8 | 4.8 | 0.00 | 0.00 | 0.00 | 67 | 1011.3 |
| 20260905181837 | 32 | 208 | 0.0 | 1.6 | 0.00 | 0.00 | 0.00 | 65 | 1011.5 |
| 20260905181336 | 31 | 189 | 0.0 | 1.6 | 0.00 | 0.00 | 0.00 | 65 | 1011.6 |
| 20260905180836 | 31 | 230 | 3.2 | 3.2 | 0.00 | 0.00 | 0.00 | 63 | 1011.7 |
| 20260905180331 | 31 | 235 | 4.8 | 4.8 | 0.00 | 0.00 | 0.00 | 64 | 1011.8 |
| 20260905175826 | 31 | 249 | 3.2 | 3.2 | 0.00 | 0.00 | 0.00 | 62 | 1011.7 |
| 20260905175320 | 31 | 228 | 1.6 | 3.2 | 0.00 | 0.00 | 0.00 | 62 | 1011.8 |
| 20260905174815 | 31 | 212 | 1.6 | 1.6 | 0.00 | 0.00 | 0.00 | 62 | 1012.0 |
| 20260905174311 | 31 | 202 | 0.0 | 1.6 | 0.00 | 0.00 | 0.00 | 63 | 1011.9 |
| 20260905173807 | 31 | 173 | 0.0 | 1.6 | 0.00 | 0.00 | 0.00 | 63 | 1011.7 |
| 20260905173303 | 31 | 219 | 1.6 | 1.6 | 0.00 | 0.00 | 0.00 | 63 | 1011.9 |
| 20260905172803 | 31 | 196 | 1.6 | 1.6 | 0.00 | 0.00 | 0.00 | 60 | 1012.0 |
| 20260905172301 | 32 | 185 | 1.6 | 1.6 | 0.00 | 0.00 | 0.00 | 60 | 1012.0 |
| 20260905171757 | 31 | 189 | 1.6 | 1.6 | 0.00 | 0.00 | 0.00 | 63 | 1012.1 |
| 20260905171253 | 32 | 254 | 3.2 | 3.2 | 0.00 | 0.00 | 0.00 | 61 | 1012.2 |
| 20260905170749 | 31 | 182 | 0.0 | 1.6 | 0.00 | 0.00 | 0.00 | 63 | 1012.0 |
| 20260905170245 | 31 | 209 | 1.6 | 1.6 | 0.00 | 0.00 | 0.00 | 62 | 1012.2 |
| 20260905165744 | 31 | 198 | 0.0 | 1.6 | 0.00 | 0.00 | 0.00 | 62 | 1012.2 |
| 20260905165240 | 31 | 187 | 1.6 | 1.6 | 0.00 | 0.00 | 0.00 | 62 | 1012.4 |
| 20260905164740 | 30 | 174 | 0.0 | 1.6 | 0.00 | 0.00 | 0.00 | 66 | 1012.4 |
| 20260905164234 | 31 | 206 | 1.6 | 1.6 | 0.00 | 0.00 | 0.00 | 64 | 1012.6 |
| 20260905163730 | 31 | 180 | 0.0 | 1.6 | 0.00 | 0.00 | 0.00 | 62 | 1012.8 |
| 20260905163226 | 31 | 186 | 0.0 | 0.0 | 0.00 | 0.00 | 0.00 | 63 | 1012.5 |
| 20260905162722 | 30 | 84 | 1.6 | 1.6 | 0.00 | 0.00 | 0.00 | 65 | 1012.5 |
| 20260905162222 | 30 | 168 | 0.0 | 0.0 | 0.00 | 0.00 | 0.00 | 65 | 1012.5 |
| 20260905161717 | 30 | 223 | 0.0 | 1.6 | 0.00 | 0.00 | 0.00 | 62 | 1012.6 |
| 20260905161215 | 30 | 169 | 1.6 | 3.2 | 0.00 | 0.00 | 0.00 | 65 | 1012.8 |
| 20260905160713 | 30 | 182 | 0.0 | 0.0 | 0.00 | 0.00 | 0.00 | 64 | 1012.4 |
| 20260905160208 | 30 | 199 | 1.6 | 1.6 | 0.00 | 0.00 | 0.00 | 63 | 1012.5 |
| 20260905155702 | 30 | 173 | 0.0 | 0.0 | 0.00 | 0.00 | 0.00 | 63 | 1012.6 |
| 20260905155202 | 30 | 178 | 0.0 | 1.6 | 0.00 | 0.00 | 0.00 | 63 | 1012.8 |
| 20260905154656 | 30 | 173 | 0.0 | 1.6 | 0.00 | 0.00 | 0.00 | 67 | 1012.8 |
| 20260905154151 | 29 | 176 | 0.0 | 1.6 | 0.00 | 0.00 | 0.00 | 67 | 1012.8 |
| 20260905153647 | 28 | 176 | 0.0 | 1.6 | 0.00 | 0.00 | 0.00 | 67 | 1012.3 |
| 20260905153142 | 28 | 227 | 1.6 | 3.2 | 0.00 | 0.00 | 0.00 | 67 | 1012.5 |
| 20260905152637 | 28 | 180 | 1.6 | 1.6 | 0.00 | 0.00 | 0.00 | 70 | 1012.6 |
| 20260905152132 | 28 | 205 | 3.2 | 3.2 | 0.00 | 0.00 | 0.00 | 69 | 1012.8 |
| 20260905151627 | 28 | 202 | 1.6 | 1.6 | 0.00 | 0.00 | 0.00 | 69 | 1013.0 |
| 20260905151122 | 28 | 170 | 0.0 | 1.6 | 0.00 | 0.00 | 0.00 | 69 | 1012.9 |
| 20260905150618 | 28 | 219 | 1.6 | 1.6 | 0.00 | 0.00 | 0.00 | 66 | 1013.0 |
| 20260905150116 | 28 | 175 | 0.0 | 1.6 | 0.00 | 0.00 | 0.00 | 70 | 1012.8 |
| 20260905145614 | 28 | 173 | 0.0 | 0.0 | 0.00 | 0.00 | 0.00 | 69 | 1013.0 |
| 20260905145113 | 27 | 178 | 0.0 | 0.0 | 0.00 | 0.00 | 0.00 | 70 | 1013.0 |
| 20260905144608 | 26 | 156 | 0.0 | 1.6 | 0.00 | 0.00 | 0.00 | 74 | 1012.9 |
| 20260905144108 | 26 | 177 | 0.0 | 1.6 | 0.00 | 0.00 | 0.00 | 76 | 1013.2 |
| 20260905143602 | 25 | 186 | 0.0 | 1.6 | 0.00 | 0.00 | 0.00 | 75 | 1013.1 |
| 20260905143057 | 25 | 164 | 1.6 | 1.6 | 0.00 | 0.00 | 0.00 | 78 | 1013.2 |
| 20260905142556 | 25 | 195 | 1.6 | 1.6 | 0.00 | 0.00 | 0.00 | 79 | 1013.1 |
| 20260905142056 | 25 | 166 | 0.0 | 1.6 | 0.00 | 0.00 | 0.00 | 79 | 1012.9 |
| 20260905141550 | 25 | 153 | 0.0 | 0.0 | 0.00 | 0.00 | 0.00 | 78 | 1013.4 |
| 20260905141047 | 25 | 189 | 0.0 | 0.0 | 0.00 | 0.00 | 0.00 | 77 | 1013.1 |
| 20260905140542 | 25 | 209 | 3.2 | 3.2 | 0.00 | 0.00 | 0.00 | 76 | 1013.2 |
| 20260905140041 | 25 | 167 | 1.6 | 1.6 | 0.00 | 0.00 | 0.00 | 77 | 1013.2 |
| 20260905135537 | 25 | 164 | 0.0 | 1.6 | 0.00 | 0.00 | 0.00 | 77 | 1013.2 |
| 20260905135036 | 25 | 166 | 0.0 | 1.6 | 0.00 | 0.00 | 0.00 | 78 | 1013.0 |
| 20260905134531 | 25 | 162 | 0.0 | 1.6 | 0.00 | 0.00 | 0.00 | 78 | 1013.2 |
| 20260905134030 | 24 | 189 | 1.6 | 1.6 | 0.00 | 0.00 | 0.00 | 78 | 1013.4 |
| 20260905133525 | 24 | 140 | 0.0 | 1.6 | 0.00 | 0.00 | 0.00 | 79 | 1013.4 |
| 20260905133025 | 23 | 173 | 0.0 | 0.0 | 0.00 | 0.00 | 0.00 | 80 | 1013.2 |
| 20260905132525 | 23 | 154 | 1.6 | 1.6 | 0.00 | 0.00 | 0.00 | 81 | 1013.0 |
| 20260905132020 | 23 | 130 | 0.0 | 1.6 | 0.00 | 0.00 | 0.00 | 81 | 1013.0 |
| 20260905131515 | 23 | 170 | 1.6 | 1.6 | 0.00 | 0.00 | 0.00 | 80 | 1013.1 |
| 20260905131010 | 23 | 182 | 1.6 | 1.6 | 0.00 | 0.00 | 0.00 | 82 | 1013.2 |
| 20260905130509 | 23 | 134 | 1.6 | 1.6 | 0.00 | 0.00 | 0.00 | 81 | 1013.4 |
| 20260905130005 | 23 | 166 | 1.6 | 1.6 | 0.00 | 0.00 | 0.00 | 82 | 1013.2 |
| 20260905125459 | 23 | 167 | 0.0 | 0.0 | 0.00 | 0.00 | 0.00 | 83 | 1013.1 |
| 20260905124954 | 23 | 165 | 1.6 | 1.6 | 0.00 | 0.00 | 0.00 | 84 | 1013.4 |
| 20260905124451 | 23 | 136 | 0.0 | 1.6 | 0.00 | 0.00 | 0.00 | 83 | 1013.3 |
| 20260905123946 | 23 | 141 | 1.6 | 1.6 | 0.00 | 0.00 | 0.00 | 84 | 1013.2 |
| 20260905123443 | 23 | 155 | 1.6 | 1.6 | 0.00 | 0.00 | 0.00 | 84 | 1013.2 |
| 20260905122942 | 23 | 147 | 1.6 | 3.2 | 0.00 | 0.00 | 0.00 | 84 | 1013.4 |
| 20260905122437 | 23 | 158 | 3.2 | 3.2 | 0.00 | 0.00 | 0.00 | 84 | 1013.2 |
| 20260905121932 | 23 | 147 | 1.6 | 3.2 | 0.00 | 0.00 | 0.00 | 83 | 1013.3 |
| 20260905121428 | 23 | 135 | 1.6 | 3.2 | 0.00 | 0.00 | 0.00 | 85 | 1013.3 |
| 20260905120927 | 23 | 150 | 1.6 | 1.6 | 0.00 | 0.00 | 0.00 | 84 | 1013.3 |
| 20260905120422 | 23 | 128 | 1.6 | 1.6 | 0.00 | 0.00 | 0.00 | 84 | 1013.4 |
| 20260905115916 | 23 | 138 | 1.6 | 1.6 | 0.00 | 0.00 | 0.00 | 85 | 1013.0 |
| 20260905115416 | 23 | 153 | 1.6 | 1.6 | 0.00 | 0.00 | 0.00 | 84 | 1013.2 |
| 20260905114911 | 23 | 138 | 3.2 | 3.2 | 0.00 | 0.00 | 0.00 | 84 | 1012.9 |
| 20260905114410 | 23 | 128 | 4.8 | 4.8 | 0.00 | 0.00 | 0.00 | 84 | 1012.8 |
| 20260905113910 | 23 | 111 | 1.6 | 1.6 | 0.00 | 0.00 | 0.00 | 86 | 1012.9 |
| 20260905113405 | 23 | 127 | 1.6 | 1.6 | 0.00 | 0.00 | 0.00 | 86 | 1012.9 |
| 20260905112901 | 23 | 97 | 1.6 | 1.6 | 0.00 | 0.00 | 0.00 | 86 | 1012.5 |
| 20260905112355 | 24 | 118 | 3.2 | 3.2 | 0.00 | 0.00 | 0.00 | 89 | 1012.5 |
| 20260905111851 | 24 | 97 | 6.4 | 8.0 | 0.00 | 0.00 | 0.00 | 95 | 1012.2 |
| 20260905111350 | 23 | 135 | 1.6 | 1.6 | 0.00 | 0.00 | 0.00 | 98 | 1012.2 |
| 20260905110850 | 23 | 77 | 1.6 | 3.2 | 0.00 | 0.00 | 0.00 | 98 | 1012.0 |
| 20260905110349 | 23 | 153 | 0.0 | 0.0 | 0.00 | 0.00 | 0.00 | 98 | 1011.6 |
| 20260905105845 | 23 | 144 | 0.0 | 0.0 | 0.00 | 0.00 | 0.00 | 98 | 1011.7 |
| 20260905105345 | 23 | 158 | 0.0 | 0.0 | 0.00 | 0.00 | 0.00 | 98 | 1011.6 |
| 20260905104839 | 23 | 173 | 0.0 | 0.0 | 0.00 | 0.00 | 0.00 | 98 | 1011.5 |
| 20260905104336 | 23 | 173 | 0.0 | 0.0 | 0.00 | 0.00 | 0.00 | 98 | 1011.4 |
| 20260905103835 | 23 | 162 | 0.0 | 0.0 | 0.00 | 0.00 | 0.00 | 98 | 1011.5 |
| 20260905103330 | 23 | 169 | 0.0 | 0.0 | 0.00 | 0.00 | 0.00 | 98 | 1011.6 |
| 20260905102826 | 23 | 163 | 0.0 | 0.0 | 0.00 | 0.00 | 0.00 | 98 | 1011.4 |
| 20260905102323 | 23 | 158 | 0.0 | 0.0 | 0.00 | 0.00 | 0.00 | 98 | 1011.4 |
| 20260905101822 | 23 | 153 | 0.0 | 0.0 | 0.00 | 0.00 | 0.00 | 98 | 1011.3 |
| 20260905101321 | 23 | 165 | 0.0 | 0.0 | 0.00 | 0.00 | 0.00 | 98 | 1011.1 |
| 20260905100816 | 23 | 165 | 0.0 | 0.0 | 0.00 | 0.00 | 0.00 | 98 | 1011.3 |
| 20260905100312 | 23 | 170 | 0.0 | 0.0 | 0.00 | 0.00 | 0.00 | 98 | 1011.1 |
| 20260905095811 | 23 | 170 | 0.0 | 0.0 | 0.00 | 0.00 | 0.00 | 98 | 1011.0 |
| 20260905095311 | 23 | 172 | 0.0 | 0.0 | 0.00 | 0.00 | 0.00 | 98 | 1011.3 |
| 20260905094805 | 23 | 197 | 0.0 | 0.0 | 0.00 | 0.00 | 0.00 | 98 | 1011.2 |
| 20260905094301 | 23 | 182 | 0.0 | 0.0 | 0.00 | 0.00 | 0.00 | 98 | 1011.2 |
| 20260905093754 | 23 | 170 | 0.0 | 0.0 | 0.00 | 0.00 | 0.00 | 98 | 1011.1 |
| 20260905093250 | 23 | 170 | 0.0 | 0.0 | 0.00 | 0.00 | 0.00 | 98 | 1011.3 |
| 20260905092746 | 23 | 174 | 0.0 | 0.0 | 0.00 | 0.00 | 0.00 | 98 | 1011.3 |
| 20260905092241 | 23 | 176 | 0.0 | 0.0 | 0.00 | 0.00 | 0.00 | 97 | 1011.1 |
| 20260905091740 | 24 | 197 | 0.0 | 0.0 | 0.00 | 0.00 | 0.00 | 97 | 1011.4 |
| 20260905091236 | 24 | 184 | 0.0 | 0.0 | 0.00 | 0.00 | 0.00 | 97 | 1011.4 |
| 20260905090734 | 24 | 171 | 0.0 | 0.0 | 0.00 | 0.00 | 0.00 | 97 | 1011.5 |
| 20260905090230 | 23 | 165 | 0.0 | 0.0 | 0.00 | 0.00 | 0.00 | 97 | 1011.4 |
| 20260905085729 | 23 | 163 | 0.0 | 0.0 | 0.00 | 0.00 | 0.00 | 97 | 1011.2 |
| 20260905085225 | 24 | 153 | 0.0 | 0.0 | 0.00 | 0.00 | 0.00 | 97 | 1011.1 |
| 20260905084724 | 24 | 161 | 0.0 | 0.0 | 0.00 | 0.00 | 0.00 | 97 | 1011.2 |
| 20260905084224 | 24 | 165 | 0.0 | 0.0 | 0.00 | 0.00 | 0.00 | 97 | 1011.2 |
| 20260905083719 | 24 | 165 | 0.0 | 0.0 | 0.00 | 0.00 | 0.00 | 97 | 1011.0 |
| 20260905083215 | 24 | 155 | 0.0 | 0.0 | 0.00 | 0.00 | 0.00 | 97 | 1011.4 |
| 20260905082711 | 24 | 150 | 0.0 | 0.0 | 0.00 | 0.00 | 0.00 | 97 | 1011.3 |
| 20260905082207 | 24 | 163 | 0.0 | 0.0 | 0.00 | 0.00 | 0.00 | 97 | 1011.2 |
| 20260905081706 | 24 | 159 | 0.0 | 0.0 | 0.00 | 0.00 | 0.00 | 97 | 1011.1 |
| 20260905081201 | 24 | 163 | 0.0 | 0.0 | 0.00 | 0.00 | 0.00 | 97 | 1010.9 |
| 20260905080701 | 24 | 174 | 0.0 | 0.0 | 0.00 | 0.00 | 0.00 | 98 | 1010.9 |
| 20260905080201 | 24 | 194 | 0.0 | 0.0 | 0.00 | 0.00 | 0.00 | 98 | 1010.7 |
| 20260905075700 | 24 | 211 | 0.0 | 0.0 | 0.00 | 0.00 | 0.00 | 99 | 1010.8 |
| 20260905075159 | 24 | 166 | 0.0 | 0.0 | 0.00 | 0.00 | 0.00 | 99 | 1010.7 |
| 20260905074658 | 24 | 166 | 0.0 | 0.0 | 0.00 | 0.00 | 0.00 | 99 | 1010.8 |
| 20260905074154 | 24 | 164 | 0.0 | 0.0 | 0.00 | 0.00 | 0.00 | 99 | 1010.8 |